Groton, CT

5:11 AM EDT on April 26, 2018 (GMT -0400)
Groton-New London

Weather History for KGON - July, 2014

Change the Weather History Date:

Tuesday, July 15, 2014

  Actual Average Record
Temperature  
Mean Temperature 70 °F -  
Max Temperature 71 °F 81 °F 93 °F (1983)
Min Temperature 66 °F 63 °F 55 °F (1962)
Cooling Degree Days 4    
Growing Degree Days 20 (Base 50)    
Moisture  
Dew Point 69 °F    
Average Humidity 100    
Maximum Humidity 100    
Minimum Humidity 94    
Precipitation  
Precipitation 0.05 in - - ()
Sea Level Pressure  
Sea Level Pressure 29.81 in    
Wind  
Wind Speed 7 mph (South)    
Max Wind Speed 13 mph    
Max Gust Speed 21 mph    
Visibility 2 miles    
Events Fog , Rain , Thunderstorm    
Averages and records for this station are not official NWS values.
T = Trace of Precipitation, MM = Missing Value Source: NWS Daily Summary

Daily Weather History Graph

Daily Weather History Graph

Search for Another Location

Airport or City:

Astronomy

Jul. 15, 2014 Rise Set
Actual Time 5:27 AM EDT 8:19 PM EDT
Civil Twilight 4:55 AM EDT 8:52 PM EDT
Nautical Twilight 4:13 AM EDT 9:33 PM EDT
Astronomical Twilight 3:25 AM EDT 10:21 PM EDT
Moon 10:22 PM EDT (7/15) 9:21 AM EDT (7/15)
Length of Visible Light 15h 57m
Length of Day
14h 52m
Waning Gibbous, 85% of the Moon is Illuminated
Jul 15
Waning Gibbous
Jul 18
Last Quarter
Jul 26
New
Aug 3
First Quarter
Aug 10
Full

Hourly Weather History & Observations

Time (EDT) Temp. Dew Point Humidity Pressure Visibility Wind Dir Wind Speed Gust Speed Precip Events Conditions
12:33 AM 69.8 °F 69.8 °F 100% 29.87 in 6.0 mi SE 5.8 mph - 0.00 in Rain Light Rain
12:56 AM 68.0 °F 68.0 °F 100% 29.86 in 5.0 mi SSE 6.9 mph - 0.02 in Rain Light Rain
1:56 AM 68.0 °F 68.0 °F 100% 29.82 in 4.0 mi SSE 10.4 mph - 0.00 in Rain Light Rain
2:56 AM 68.0 °F 68.0 °F 100% 29.83 in 5.0 mi South 5.8 mph - 0.00 in   Overcast
3:56 AM 68.0 °F 68.0 °F 100% 29.82 in 5.0 mi Calm Calm - 0.00 in   Overcast
4:56 AM 68.0 °F 68.0 °F 100% 29.81 in 4.0 mi South 4.6 mph - 0.00 in   Overcast
5:56 AM 69.1 °F 69.1 °F 100% 29.82 in 5.0 mi South 8.1 mph - N/A   Overcast
6:07 AM 69.8 °F 69.8 °F 100% 29.81 in 4.0 mi South 6.9 mph - N/A   Overcast
6:56 AM 69.1 °F 69.1 °F 100% 29.81 in 4.0 mi SSW 6.9 mph - N/A   Overcast
7:56 AM 71.1 °F 71.1 °F 100% 29.81 in 2.5 mi South 8.1 mph - N/A   Overcast
8:01 AM 69.8 °F 69.8 °F 100% 29.81 in 1.8 mi South 8.1 mph - N/A   Overcast
8:20 AM 69.8 °F 69.8 °F 100% 29.81 in 0.5 mi South 9.2 mph - N/A Fog Fog
8:48 AM 71.6 °F 71.6 °F 100% 29.81 in 1.5 mi South 8.1 mph - N/A   Overcast
8:56 AM 70.0 °F 70.0 °F 100% 29.82 in 1.5 mi South 9.2 mph - N/A   Overcast
9:10 AM 69.8 °F 69.8 °F 100% 29.82 in 0.8 mi South 8.1 mph - N/A   Overcast
9:23 AM 69.8 °F 69.8 °F 100% 29.81 in 0.5 mi South 5.8 mph - N/A Fog Fog
9:49 AM 69.8 °F 69.8 °F 100% 29.81 in 0.8 mi South 5.8 mph - N/A   Mist
9:56 AM 69.1 °F 69.1 °F 100% 29.82 in 1.0 mi South 5.8 mph - N/A   Mist
10:56 AM 70.0 °F 70.0 °F 100% 29.82 in 2.5 mi SSE 8.1 mph - N/A   Overcast
11:08 AM 69.8 °F 69.8 °F 100% 29.82 in 1.0 mi SSE 9.2 mph - N/A   Overcast
11:17 AM 69.8 °F 69.8 °F 100% 29.82 in 0.5 mi SSE 5.8 mph - N/A Fog Fog
11:32 AM 69.8 °F 69.8 °F 100% 29.82 in 0.5 mi SSE 6.9 mph - N/A Fog Fog
11:49 AM 69.8 °F 69.8 °F 100% 29.82 in 0.2 mi South 6.9 mph - N/A Fog Fog
11:56 AM 70.0 °F 70.0 °F 100% 29.82 in 0.2 mi SSE 8.1 mph - N/A Fog Fog
12:31 PM 69.8 °F 69.8 °F 100% 29.82 in 0.5 mi SSE 4.6 mph - N/A Fog Fog
12:44 PM 68.0 °F 68.0 °F 100% 29.81 in 1.0 mi South 4.6 mph - N/A   Mist
12:56 PM 68.0 °F 68.0 °F 100% 29.81 in 0.5 mi South 3.5 mph - N/A Fog Fog
1:56 PM 68.0 °F 68.0 °F 100% 29.81 in 0.5 mi South 8.1 mph - N/A Fog Fog
1:59 PM 68.0 °F 68.0 °F 100% 29.80 in 1.0 mi South 9.2 mph - N/A   Overcast
2:43 PM 71.6 °F 69.8 °F 94% 29.78 in 1.5 mi SSE 9.2 mph - N/A   Overcast
2:56 PM 70.0 °F 69.1 °F 97% 29.79 in 3.0 mi SSE 6.9 mph - N/A   Overcast
3:56 PM 70.0 °F 69.1 °F 97% 29.80 in 2.0 mi SSW 5.8 mph - N/A   Overcast
4:18 PM 69.8 °F 69.8 °F 100% 29.79 in 2.0 mi South 4.6 mph - N/A   Overcast
4:56 PM 71.1 °F 71.1 °F 100% 29.79 in 1.0 mi SSW 9.2 mph - N/A   Overcast
5:04 PM 71.6 °F 71.6 °F 100% 29.78 in 0.8 mi South 9.2 mph - N/A   Overcast
5:44 PM 69.8 °F 69.8 °F 100% 29.76 in 0.2 mi SSE 5.8 mph - N/A Fog Fog
5:56 PM 69.1 °F 69.1 °F 100% 29.76 in 0.2 mi South 5.8 mph - N/A Fog Fog
6:52 PM 68.0 °F 68.0 °F 100% 29.78 in 0.2 mi South 5.8 mph - N/A Fog Fog
6:56 PM 68.0 °F 68.0 °F 100% 29.78 in 0.2 mi South 5.8 mph - N/A Fog Fog
7:36 PM 68.0 °F 68.0 °F 100% 29.79 in 0.5 mi South 8.1 mph - N/A Fog Fog
7:51 PM 68.0 °F 68.0 °F 100% 29.79 in 0.5 mi South 4.6 mph - N/A Fog Fog
7:56 PM 68.0 °F 68.0 °F 100% 29.80 in 0.2 mi SSE 9.2 mph - N/A Fog Fog
8:08 PM 68.0 °F 68.0 °F 100% 29.80 in 0.2 mi South 4.6 mph - N/A Fog Fog
8:44 PM 69.8 °F 69.8 °F 100% 29.80 in 0.5 mi Calm Calm - N/A Fog Fog
8:56 PM 69.1 °F 69.1 °F 100% 29.80 in 0.5 mi Calm Calm - N/A Fog Fog
9:05 PM 69.8 °F 69.8 °F 100% 29.80 in 0.2 mi Calm Calm - N/A Fog Fog
9:16 PM 71.6 °F 71.6 °F 100% 29.80 in 0.5 mi SSW 10.4 mph - N/A Fog Fog
9:35 PM 69.8 °F 69.8 °F 100% 29.80 in 0.5 mi South 6.9 mph - N/A Fog Fog
9:56 PM 70.0 °F 70.0 °F 100% 29.81 in 0.5 mi South 8.1 mph - N/A Fog Fog
10:12 PM 69.8 °F 69.8 °F 100% 29.82 in 2.5 mi WSW 12.7 mph - 0.00 in Rain Light Rain
10:16 PM 69.8 °F 69.8 °F 100% 29.81 in 6.0 mi WSW 11.5 mph 20.7 mph 0.00 in Rain Light Rain
10:26 PM 69.8 °F 69.8 °F 100% 29.82 in 10.0 mi WSW 10.4 mph 20.7 mph 0.00 in   Mostly Cloudy
10:38 PM 68.0 °F 68.0 °F 100% 29.82 in 7.0 mi SW 8.1 mph - 0.00 in Rain , Thunderstorm Light Rain
10:53 PM 68.0 °F 68.0 °F 100% 29.80 in 7.0 mi West 6.9 mph - 0.03 in Rain Light Rain
10:56 PM 68.0 °F 68.0 °F 100% 29.80 in 7.0 mi West 5.8 mph - 0.03 in Rain Light Rain
11:07 PM 69.8 °F 68.0 °F 94% 29.76 in 8.0 mi Calm Calm - 0.00 in Rain , Thunderstorm Light Rain
11:22 PM 68.0 °F 68.0 °F 100% 29.77 in 8.0 mi Calm Calm - 0.00 in   Partly Cloudy
11:56 PM 66.0 °F 66.0 °F 100% 29.79 in 5.0 mi SSE 4.6 mph - 0.00 in   Clear